EA3CIU-1 Weather Reports


time (UTC)temp
C
wind
direction
speed
KPH
gust
KPH
rain 1hr
cm
rain 24hr
cm
rain mn
cm
humidity
%
barometer
mb
20260502221405 15 215 0.0 4.8 0.00 0.00 0.00 83 1018.0
20260502220904 15 184 0.0 4.8 0.00 0.00 0.00 83 1018.0
20260502220405 15 191 0.0 4.8 0.00 0.00 0.00 82 1018.0
20260502215903 15 175 0.0 4.8 0.00 0.00 0.00 82 1018.0
20260502215405 15 189 0.0 4.8 0.00 0.00 0.00 82 1018.0
20260502214904 15 254 0.0 4.8 0.00 0.00 0.00 82 1018.0
20260502214405 15 306 0.0 4.8 0.00 0.00 0.00 82 1018.0
20260502213903 15 310 0.0 4.8 0.00 0.00 0.00 82 1019.0
20260502212904 15 165 0.0 3.2 0.00 0.00 0.00 82 1019.0
20260502211903 15 158 0.0 3.2 0.00 0.00 0.00 82 1018.0
20260502211404 15 156 0.0 0.0 0.00 0.00 0.00 82 1018.0
20260502210405 15 178 0.0 4.8 0.00 0.00 0.00 82 1018.0
20260502205903 15 181 0.0 0.0 0.00 0.00 0.00 82 1018.0
20260502205404 15 165 0.0 0.0 0.00 0.00 0.00 81 1019.0
20260502204904 15 160 0.0 0.0 0.00 0.00 0.00 81 1019.0
20260502204404 15 163 0.0 0.0 0.00 0.00 0.00 81 1019.0
20260502203904 15 178 0.0 0.0 0.00 0.00 0.00 81 1018.0
20260502203404 15 152 0.0 6.4 0.00 0.00 0.00 81 1018.0
20260502202904 15 210 0.0 6.4 0.00 0.00 0.00 82 1018.0
20260502202405 15 159 0.0 6.4 0.00 0.00 0.00 82 1018.0
20260502201903 15 149 0.0 0.0 0.00 0.00 0.00 82 1018.0
20260502200904 15 154 0.0 0.0 0.00 0.00 0.00 81 1018.0
20260502200404 15 175 0.0 0.0 0.00 0.00 0.00 81 1018.0
20260502195903 15 175 0.0 0.0 0.00 0.00 0.00 81 1018.0
20260502195404 15 175 0.0 0.0 0.00 0.00 0.00 81 1018.0
20260502194904 15 178 0.0 0.0 0.00 0.00 0.00 81 1018.0
20260502193903 15 189 0.0 3.2 0.00 0.00 0.00 80 1018.0
20260502192404 15 191 0.0 4.8 0.00 0.00 0.00 79 1018.0
20260502191904 16 191 3.2 4.8 0.00 0.00 0.00 79 1018.0
20260502191404 16 246 0.0 6.4 0.00 0.00 0.00 78 1018.0
20260502190404 16 160 0.0 9.7 0.00 0.00 0.00 77 1018.0
20260502185903 16 176 4.8 9.7 0.00 0.00 0.00 76 1018.0
20260502185405 16 130 4.8 9.7 0.00 0.00 0.00 75 1018.0
20260502184903 16 157 6.4 6.4 0.00 0.00 0.00 74 1018.0
20260502183903 16 131 0.0 6.4 0.00 0.00 0.00 72 1018.0
20260502183404 16 127 0.0 6.4 0.00 0.00 0.00 72 1018.0
20260502182904 16 156 4.8 8.0 0.00 0.00 0.00 71 1018.0
20260502182404 16 139 4.8 8.0 0.00 0.00 0.00 69 1018.0
20260502181904 16 168 4.8 8.0 0.00 0.00 0.00 68 1018.0
20260502181403 16 138 4.8 8.0 0.00 0.00 0.00 68 1018.0
20260502180904 16 183 3.2 8.0 0.00 0.00 0.00 67 1018.0
20260502180405 16 131 4.8 8.0 0.00 0.00 0.00 66 1018.0
20260502170405 17 165 4.8 9.7 0.00 0.00 0.00 66 1018.0
20260502163904 17 163 4.8 9.7 0.00 0.00 0.00 67 1019.0
20260502163404 17 173 6.4 9.7 0.00 0.00 0.00 66 1019.0
20260502162903 17 140 4.8 9.7 0.00 0.00 0.00 65 1019.0
20260502162404 17 130 8.0 9.7 0.00 0.00 0.00 65 1019.0
20260502161903 17 185 4.8 9.7 0.00 0.00 0.00 64 1019.0
20260502161403 17 161 4.8 9.7 0.00 0.00 0.00 63 1019.0
20260502160905 17 159 4.8 9.7 0.00 0.00 0.00 62 1019.0
20260502160405 17 120 3.2 9.7 0.00 0.00 0.00 61 1019.0
20260502151903 17 164 6.4 12.9 0.00 0.00 0.00 63 1019.0
20260502151403 17 133 6.4 12.9 0.00 0.00 0.00 65 1019.0
20260502150904 17 164 6.4 12.9 0.00 0.00 0.00 65 1019.0
20260502150405 18 155 8.0 11.3 0.00 0.00 0.00 65 1019.0
20260502130404 18 158 8.0 9.7 0.00 0.00 0.00 59 1021.0
20260502123404 18 134 8.0 9.7 0.00 0.00 0.00 52 1021.0
20260502122904 18 121 6.4 9.7 0.00 0.00 0.00 51 1021.0
20260502121903 19 144 6.4 12.9 0.00 0.00 0.00 50 1021.0
20260502121405 19 148 6.4 12.9 0.00 0.00 0.00 49 1021.0
20260502120904 19 105 4.8 12.9 0.00 0.00 0.00 50 1021.0
20260502120405 19 83 6.4 12.9 0.00 0.00 0.00 50 1021.0
20260502114903 19 78 6.4 11.3 0.00 0.00 0.00 51 1021.0
20260502114404 19 161 4.8 11.3 0.00 0.00 0.00 48 1021.0
20260502113903 19 130 6.4 11.3 0.00 0.00 0.00 48 1021.0
20260502112903 18 130 4.8 8.0 0.00 0.00 0.00 54 1021.0
20260502112405 18 182 0.0 6.4 0.00 0.00 0.00 57 1021.0
20260502111903 18 141 0.0 6.4 0.00 0.00 0.00 58 1021.0
20260502111404 18 199 3.2 6.4 0.00 0.00 0.00 58 1021.0
20260502110404 18 138 3.2 4.8 0.00 0.00 0.00 59 1021.0
20260502105904 18 286 0.0 4.8 0.00 0.00 0.00 59 1021.0
20260502105405 18 315 3.2 4.8 0.00 0.00 0.00 59 1021.0
20260502104403 18 180 0.0 6.4 0.00 0.00 0.00 61 1021.0
20260502103903 17 188 0.0 6.4 0.00 0.00 0.00 61 1022.0
20260502103405 17 316 0.0 6.4 0.00 0.00 0.00 61 1022.0
20260502102903 17 327 0.0 0.0 0.00 0.00 0.00 61 1022.0
20260502102404 17 329 0.0 4.8 0.00 0.00 0.00 61 1022.0
20260502101902 17 309 0.0 6.4 0.00 0.00 0.00 62 1022.0
20260502101405 17 317 0.0 6.4 0.00 0.00 0.00 62 1022.0
20260502100905 17 154 0.0 6.4 0.00 0.00 0.00 62 1022.0
20260502100405 17 170 0.0 4.8 0.00 0.00 0.00 62 1022.0
20260502091404 16 182 0.0 4.8 0.00 0.00 0.00 66 1022.0
20260502090404 16 117 0.0 4.8 0.00 0.00 0.00 66 1022.0
20260502071403 15 140 0.0 0.0 0.00 0.00 0.00 73 1022.0
20260502070906 15 304 0.0 0.0 0.00 0.00 0.00 73 1022.0
20260502070404 15 150 0.0 0.0 0.00 0.00 0.00 74 1022.0
20260502065904 15 239 0.0 0.0 0.00 0.00 0.00 75 1022.0
20260502065404 15 171 0.0 0.0 0.00 0.00 0.00 76 1022.0
20260502063903 15 185 0.0 0.0 0.00 0.00 0.00 76 1022.0
20260502063404 15 135 0.0 0.0 0.00 0.00 0.00 77 1022.0
20260502062903 15 135 0.0 4.8 0.00 0.00 0.00 77 1022.0
20260502061903 15 158 0.0 4.8 0.00 0.00 0.00 77 1022.0
20260502061403 15 211 0.0 0.0 0.00 0.00 0.00 77 1022.0
20260502060903 15 290 0.0 4.8 0.00 0.00 0.00 77 1022.0
20260502060405 15 266 0.0 4.8 0.00 0.00 0.00 77 1022.0
20260502055904 15 289 0.0 4.8 0.00 0.00 0.00 77 1022.0
20260502055405 15 112 0.0 0.0 0.00 0.00 0.00 78 1022.0
20260502054904 15 149 0.0 3.2 0.00 0.00 0.00 78 1022.0
20260502054404 15 224 0.0 3.2 0.00 0.00 0.00 78 1022.0
20260502053903 15 235 0.0 3.2 0.00 0.00 0.00 78 1022.0
20260502052904 15 171 0.0 0.0 0.00 0.00 0.00 78 1022.0
20260502052404 15 220 0.0 0.0 0.00 0.00 0.00 79 1022.0
20260502051903 15 148 0.0 3.2 0.00 0.00 0.00 79 1022.0
20260502050905 15 258 0.0 3.2 0.00 0.00 0.00 79 1022.0
20260502045903 15 172 0.0 0.0 0.00 0.00 0.00 80 1022.0
20260502045405 15 160 0.0 0.0 0.00 0.00 0.00 79 1022.0
20260502044905 15 147 0.0 0.0 0.00 0.00 0.00 79 1022.0
20260502043903 15 131 0.0 0.0 0.00 0.00 0.00 80 1022.0
20260502042903 15 232 0.0 0.0 0.00 0.00 0.00 80 1022.0
20260502042403 15 277 0.0 0.0 0.00 0.00 0.00 80 1022.0
20260502041903 15 310 0.0 3.2 0.00 0.00 0.00 80 1022.0
20260502041402 15 318 0.0 4.8 0.00 0.00 0.00 80 1022.0
20260502040404 15 234 0.0 4.8 0.00 0.00 0.00 80 1021.0
20260502034904 15 212 0.0 4.8 0.00 0.00 0.00 79 1022.0
20260502034404 15 308 0.0 3.2 0.00 0.00 0.00 79 1022.0
20260502033903 15 213 0.0 3.2 0.00 0.00 0.00 79 1022.0
20260502033404 15 154 0.0 3.2 0.00 0.00 0.00 78 1022.0
20260502032404 15 153 0.0 0.0 0.00 0.00 0.00 77 1022.0
20260502031904 15 128 0.0 0.0 0.00 0.00 0.00 76 1022.0
20260502031403 15 199 0.0 4.8 0.00 0.00 0.00 76 1022.0
20260502030904 15 155 0.0 4.8 0.00 0.00 0.00 76 1022.0
20260502030405 15 175 0.0 6.4 0.00 0.00 0.00 75 1022.0
20260502025904 15 148 0.0 6.4 0.00 0.00 0.00 75 1022.0
20260502025404 15 212 0.0 6.4 0.00 0.00 0.00 74 1022.0
20260502024904 15 160 0.0 4.8 0.00 0.00 0.00 74 1022.0
20260502024403 15 148 0.0 4.8 0.00 0.00 0.00 74 1022.0
20260502023903 15 156 0.0 0.0 0.00 0.00 0.00 73 1022.0
20260502023404 15 154 0.0 0.0 0.00 0.00 0.00 73 1022.0
20260502022904 15 172 0.0 0.0 0.00 0.00 0.00 74 1022.0
20260502022404 15 189 0.0 0.0 0.00 0.00 0.00 74 1022.0
20260502021902 15 202 0.0 0.0 0.00 0.00 0.00 73 1022.0
20260502021405 15 284 0.0 0.0 0.00 0.00 0.00 73 1022.0
20260502020904 15 288 0.0 0.0 0.00 0.00 0.00 73 1022.0
20260502015902 15 289 0.0 0.0 0.00 0.00 0.00 73 1022.0
20260502015405 15 141 0.0 0.0 0.00 0.00 0.00 73 1022.0
20260502014404 15 202 0.0 0.0 0.00 0.00 0.00 73 1022.0
20260502013903 15 205 0.0 0.0 0.00 0.00 0.00 73 1022.0
20260502013404 15 243 0.0 0.0 0.00 0.00 0.00 73 1022.0
20260502012403 15 146 0.0 0.0 0.00 0.00 0.00 72 1022.0
20260502011903 15 168 0.0 0.0 0.00 0.00 0.00 72 1022.0
20260502011405 15 258 0.0 0.0 0.00 0.00 0.00 73 1022.0
20260502010903 15 258 0.0 0.0 0.00 0.00 0.00 73 1022.0
20260502010404 15 274 0.0 0.0 0.00 0.00 0.00 73 1022.0
20260502005903 15 291 0.0 4.8 0.00 0.00 0.00 72 1022.0
20260502005405 15 154 0.0 4.8 0.00 0.00 0.00 72 1022.0
20260502004903 15 310 0.0 4.8 0.00 0.00 0.00 72 1022.0
20260502004404 15 310 0.0 4.8 0.00 0.00 0.00 72 1022.0
20260502003903 15 310 0.0 6.4 0.00 0.00 0.00 72 1022.0
20260502002904 15 313 0.0 6.4 0.00 0.00 0.00 72 1022.0
20260502002406 15 317 0.0 0.0 0.00 0.00 0.00 72 1023.0
20260502001404 15 331 0.0 0.0 0.00 0.00 0.00 72 1023.0
20260502000904 15 301 0.0 0.0 0.00 0.00 0.00 72 1023.0
20260502000405 15 274 0.0 4.8 0.00 0.00 0.00 73 1023.0
20260501235904 15 301 0.0 4.8 0.00 0.00 0.00 73 1023.0
20260501235405 15 302 0.0 4.8 0.00 0.00 0.00 73 1023.0
20260501234904 15 299 0.0 6.4 0.00 0.00 0.00 73 1023.0
20260501234404 15 304 0.0 6.4 0.00 0.00 0.00 73 1023.0
20260501233903 15 318 3.2 6.4 0.00 0.00 0.00 73 1023.0
20260501232903 15 310 0.0 4.8 0.00 0.00 0.00 73 1023.0
20260501232405 15 310 0.0 4.8 0.00 0.00 0.00 73 1023.0
20260501231903 15 304 0.0 4.8 0.00 0.00 0.00 73 1023.0
20260501231404 15 190 0.0 4.8 0.00 0.00 0.00 74 1023.0
20260501230904 15 189 0.0 4.8 0.00 0.00 0.00 74 1023.0
20260501230405 15 189 0.0 4.8 0.00 0.00 0.00 74 1023.0
20260501225903 15 299 0.0 4.8 0.00 0.00 0.00 74 1023.0
20260501225404 15 181 0.0 4.8 0.00 0.00 0.00 75 1023.0
20260501224905 15 156 0.0 4.8 0.00 0.00 0.00 75 1023.0
20260501223903 15 179 0.0 4.8 0.00 0.00 0.00 77 1023.0
20260501223404 15 311 0.0 3.2 0.00 0.00 0.00 78 1023.0
20260501222904 15 300 0.0 4.8 0.00 0.00 0.00 79 1023.0
20260501222403 15 300 0.0 4.8 0.00 0.00 0.00 80 1023.0
20260501221902 15 300 0.0 4.8 0.00 0.00 0.00 81 1023.0